Regional Weather Roundup
Issued by NWS

Home | Current Version | Previous Version | Text Only | Print | Product List | Glossary Off
Versions: 1 2 3 4 5 6 7 8 9 10 11 12 13 14 15 16 17 18 19 20 21 22 23 24 25 26 27 28 29 30 31 32 33 34 35 36 37 38 39 40 41 42 43 44 45 46 47 48 49 50

000
ASUS43 KMKX 241911
RWRWI

WISCONSIN REGIONAL WEATHER ROUNDUP
NATIONAL WEATHER SERVICE MILWAUKEE/SULLIVAN WI
200 PM CDT FRI MAR 24 2017

NOTE: "FAIR" INDICATES FEW OR NO CLOUDS BELOW 12,000 FEET WITH NO
SIGNIFICANT WEATHER AND/OR OBSTRUCTIONS TO VISIBILITY.

WIZ001-002-006>008-014>016-023>028-242000-
NORTHWEST WISCONSIN

CITY           SKY/WX    TMP DP  RH WIND       PRES   REMARKS
SUPERIOR ARPT  CLOUDY    38  34  84 E5        30.12R WCI  35
ASHLAND        CLOUDY    38  33  82 NE10      30.11R WCI  31
HAYWARD        CLOUDY    41  34  76 N12       30.06R HAZE
SIREN          CLOUDY    41  34  75 N10       30.09R
CUMBERLAND     CLOUDY    37  34  87 N6        30.07R WCI  33
RICE LAKE      CLOUDY    40  36  84 N9        30.07R WCI  34
CHETEK         CLOUDY    41  37  87 N6        30.04S
LADYSMITH      CLOUDY    39  36  86 N12       30.05R WCI  32
EAU CLAIRE     LGT RAIN  40  37  89 N10       30.02S WCI  33
MENOMONIE      DRIZZLE   41  37  87 N10       30.04R
NEW RICHMOND   CLOUDY    41  35  79 NE14      30.05S
OSCEOLA        CLOUDY    43  36  75 NE10      30.08F
$$

WIZ003>005-009-010-017-018-242000-
NORTH CENTRAL WISCONSIN

CITY           SKY/WX    TMP DP  RH WIND       PRES   REMARKS
MANITOWISH WTR CLOUDY    33  33 100 NE3       30.04R FOG
ARBOR VITAE    CLOUDY    37  35  94 N9        30.03R FOG     WCI  30
WOODRUFF       CLOUDY    37  35  94 N9        30.03R FOG     WCI  30
RHINELANDER    CLOUDY    36  35  96 NE6       30.01R FOG     WCI  31
EAGLE RIVER    CLOUDY    34  34 100 NE10      30.02R FOG     WCI  26
LAND O LAKES   FOG       33  33 100 N6        30.04S VSB 1   WCI  28
PHILLIPS       CLOUDY    35  35  99 N8        30.03R WCI  29
TOMAHAWK       LGT RAIN  36  33  92 N6        30.02R WCI  31
MEDFORD        LGT RAIN  37  35  92 NE8       30.01R WCI  30
MERRILL        RAIN      37  37  97 N6        30.02R WCI  33
$$

WIZ029-030-035-036-043>047-242000-
CENTRAL WISCONSIN

CITY           SKY/WX    TMP DP  RH WIND       PRES   REMARKS
WAUSAU         LGT RAIN  38  37  97 NE6       29.99R FOG     WCI  33
MOSINEE        LGT RAIN  37  37 100 N8        30.00R FOG     WCI  31
MARSHFIELD     RAIN      38  37  97 NE9       29.99R FOG     WCI  31
STEVENS POINT  LGT RAIN  35  35 100 NE6       30.00R WCI  30
WAUPACA        LGT RAIN  39  37  91 N7        29.99R WCI  34
WAUTOMA        CLOUDY    39  36  89 N10       29.98R WCI  32
WISC RAPIDS    LGT RAIN  38  38 100 NE7       30.02R FOG     WCI  33
CAMP DOUGLAS   CLOUDY    40  38  92 N7        29.97R
$$

WIZ011>013-019>022-031-037>040-048>050-242000-
NORTHEAST WISCONSIN

CITY           SKY/WX    TMP DP  RH WIND       PRES   REMARKS
ANTIGO         LGT RAIN  35  35  98 NE6       30.01R WCI  30
SHAWANO        DRIZZLE   38  36  91 NE6       30.01R WCI  33
OCONTO         CLOUDY    37  36  96 NE7       30.00F WCI  31
STURGEON BAY   RAIN      35  34  96 N8        30.01F FOG     WCI  29
GREEN BAY      MIX PCPN  37  37 100 NE14      29.99R FOG     WCI  28
MANITOWOC      CLOUDY    42  34  73 NE10      29.98R
APPLETON       CLOUDY    37  36  93 NE10      29.95S FOG     WCI  30
CLINTONVILLE   LGT RAIN  36  36 100 NE8       30.00R WCI  29
OSHKOSH        CLOUDY    41  35  79 NE16      29.96R
$$

WIZ032>034-041-042-053>061-242000-
SOUTHWEST WISCONSIN

CITY           SKY/WX    TMP DP  RH WIND       PRES   REMARKS
LA CROSSE      CLOUDY    44  41  89 N6        30.00R FOG
SPARTA         CLOUDY    41  40  98 N7        29.99R
VIROQUA        CLOUDY    42  41  97 N9        29.95R
BOSCOBEL       CLOUDY    57  45  64 N5        29.92R
PRAIRIE DU CHI CLOUDY    51  42  71 NW8       29.92R
PLATTEVILLE    CLOUDY    64  51  62 NW12      29.89R
$$

WIZ056-057-062-063-064-067-068-242000-
SOUTH CENTRAL WISCONSIN

CITY           SKY/WX    TMP DP  RH WIND       PRES   REMARKS
REEDSBURG      LGT RAIN  52  43  72 N6        29.94R
BARABOO/DELLS  CLOUDY    52  41  67 N7        29.94R
LONE ROCK      CLOUDY    59  47  64 W12       29.92R HAZE
MINERAL POINT  CLOUDY    63  52  67 NW8       29.91R
MADISON        CLOUDY    60  49  66 N6        29.89S
MIDDLETON      MOSUNNY   60  49  68 N5        29.90S
WATERTOWN      PTSUNNY   61  50  66 NW3       29.89F
MONROE         CLOUDY    72  48  43 SW13      29.87S
JANESVILLE     PTSUNNY   75  48  38 W14G20    29.87R
$$

WIZ051-052-058>065-066-070>072-242000-
SOUTHEAST WISCONSIN

CITY           SKY/WX    TMP DP  RH WIND       PRES   REMARKS
MILWAUKEE      PTSUNNY   54  42  64 NE10      29.92R
WAUKESHA       SUNNY     63  48  59 NW8       29.91R
MILWAUKEE/TIMM CLOUDY    59  39  47 E9        29.92R
RACINE         PTSUNNY   51  40  65 NE13      29.91R
KENOSHA        PTSUNNY   76  49  38 SW22G29   29.87S
FOND DU LAC    CLOUDY    47  39  74 NE14      29.95R
SHEBOYGAN      CLOUDY    45  38  76 NE17      29.96R
WEST BEND      CLOUDY    57  46  67 NE8       29.93R
JUNEAU         PTSUNNY   54  44  70 NE9       29.92S
$$

LSZ147-162-242000-
LAKE SUPERIOR

STATION/POSITION TIME  TEMP    WIND        PRES    WAVE
                       AIR SEA DIR/SP/G            HT/PER
                 (UTC) (F)     (DEG/KT/KT) (MB)    (FT/S)
DEVILS ISLAND    1900   36     350/  7/  7 1020.7R
PORT WING        1840   36      20/  4/  4 1020.0R
SAXON HARBOR     1840   35     330/  3/  4 1019.0R
$$

LMZ867-665-643>646-242000-
LAKE MICHIGAN

STATION/POSITION TIME  TEMP    WIND        PRES    WAVE
                       AIR SEA DIR/SP/G            HT/PER
                 (UTC) (F)     (DEG/KT/KT) (MB)    (FT/S)
CHAMBERS ISLAND  1840   34      10/  9/ 10 1015.9F
NORTHPORT PIER   1840   33     340/  7/  9 1016.6S
SISTER BAY       1835   35      30/ 12/ 15   N/A
KEWAUNEE LAKESHO 1848   37      20/ 10/ 13 1015.2R
SHEBOYGAN LAKESH 1900   38      30/ 19/ 22 1015.2R
PORT WASHINGTON  1840   42      50/ 14/ 18 1014.9R
MILWAUKEE LAKESH 1850   42      30/ 11/ 12   N/A
KENOSHA   LAKESH 1900   54     360/  7/ 14 1011.5
$$

TC  - TEMPERATURE IN CELSIUS
VSB - VISIBILITY IN STATUTE MILES
WCI - WIND CHILL INDEX
HX  - HEAT INDEX





USA.gov is the U.S. government's official web portal to all federal, state and local government web resources and services.